Weather History for Frederick, MD

Change the Weather History Date:

Wednesday, August 7, 2013

  Actual Average (KHGR) Record (KHGR)
Temperature  
Mean Temperature 75 °F -  
Max Temperature 84 °F 82 °F 96 °F (2001)
Min Temperature 66 °F 63 °F 53 °F (1997)
Cooling Degree Days 10    
Growing Degree Days 25 (Base 50)    
Moisture  
Dew Point 69 °F    
Average Humidity 95    
Maximum Humidity 100    
Minimum Humidity 70    
Precipitation  
Precipitation 0.69 in - - ()
Sea Level Pressure  
Sea Level Pressure 30.08 in    
Wind  
Wind Speed 1 mph (South)    
Max Wind Speed 9 mph    
Max Gust Speed 23 mph    
Visibility 7 miles    
Events Rain , Thunderstorm    
Averages and records for this station are not official NWS values.
T = Trace of Precipitation, MM = Missing Value Source: NWS Daily Summary

Daily Weather History Graph

Daily Weather History Graph

Search for Another Location

Airport:

Trip Planner

Search our weather history database for the weather conditions in past years. The results will help you decide how hot, cold, wet, or windy it might be!

Date:

Astronomy

Aug. 07, 2013 Rise Set
Actual Time 6:14 AM EDT 8:14 PM EDT
Civil Twilight 5:45 AM EDT 8:44 PM EDT
Nautical Twilight 5:09 AM EDT 9:19 PM EDT
Astronomical Twilight 4:30 AM EDT 9:58 PM EDT
Moon 7:01 AM EDT (8/7) 8:21 PM EDT (8/7)
Length of Visible Light 14h 58m
Length of Day
13h 59m
New Moon, 1% of the Moon is Illuminated
Aug 7
New Moon
Aug 14
First Quarter
Aug 20
Full
Aug 28
Last Quarter
Sep 5
New

Hourly Weather History & Observations

Time (EDT) Temp. Heat Index Dew Point Humidity Pressure Visibility Wind Dir Wind Speed Gust Speed Precip Events Conditions
12:05 AM 66.2 °F - 66.2 °F 100% 30.11 in 10.0 mi Calm Calm - N/A   Overcast
12:25 AM 66.2 °F - 66.2 °F 100% 30.11 in 10.0 mi Calm Calm - N/A   Overcast
12:45 AM 68.0 °F - 68.0 °F 100% 30.10 in 10.0 mi Calm Calm - N/A   Overcast
1:05 AM 68.0 °F - 68.0 °F 100% 30.10 in 10.0 mi Calm Calm - N/A   Overcast
1:25 AM 68.0 °F - 68.0 °F 100% 30.09 in 10.0 mi Calm Calm - N/A   Overcast
1:45 AM 66.2 °F - 66.2 °F 100% 30.09 in 7.0 mi Calm Calm - N/A   Overcast
2:05 AM 66.2 °F - 66.2 °F 100% 30.10 in 7.0 mi Calm Calm - N/A   Overcast
2:25 AM 66.2 °F - 66.2 °F 100% 30.10 in 5.0 mi Calm Calm - N/A   Overcast
2:45 AM 66.2 °F - 66.2 °F 100% 30.09 in 5.0 mi Calm Calm - N/A   Overcast
3:05 AM 68.0 °F - 68.0 °F 100% 30.09 in 7.0 mi Calm Calm - N/A   Overcast
3:25 AM 68.0 °F - 68.0 °F 100% 30.10 in 7.0 mi Calm Calm - N/A   Overcast
3:45 AM 68.0 °F - 68.0 °F 100% 30.10 in 7.0 mi Calm Calm - N/A   Overcast
4:05 AM 66.2 °F - 66.2 °F 100% 30.09 in 5.0 mi Calm Calm - N/A   Overcast
4:25 AM 66.2 °F - 66.2 °F 100% 30.09 in 5.0 mi Calm Calm - N/A   Overcast
4:45 AM 68.0 °F - 68.0 °F 100% 30.10 in 5.0 mi Calm Calm - N/A   Overcast
5:05 AM 68.0 °F - 68.0 °F 100% 30.10 in 7.0 mi Calm Calm - N/A   Overcast
5:25 AM 68.0 °F - 68.0 °F 100% 30.09 in 5.0 mi Calm Calm - N/A   Overcast
5:45 AM 68.0 °F - 68.0 °F 100% 30.09 in 5.0 mi Calm Calm - N/A   Overcast
6:05 AM 68.0 °F - 68.0 °F 100% 30.09 in 7.0 mi Calm Calm - N/A Thunderstorm Overcast
6:25 AM 68.0 °F - 68.0 °F 100% 30.09 in 7.0 mi ESE 3.5 mph - N/A   Overcast
6:45 AM 68.0 °F - 68.0 °F 100% 30.10 in 5.0 mi Calm Calm - N/A   Overcast
6:50 AM 68.0 °F - 68.0 °F 100% 30.10 in 4.0 mi ESE 3.5 mph - N/A   Overcast
7:45 AM 68.0 °F - 68.0 °F 100% 30.10 in 2.0 mi Calm Calm - N/A   Overcast
8:50 AM 69.8 °F - 69.8 °F 100% 30.09 in 3.0 mi SSE 3.5 mph - N/A   Overcast
9:50 AM 69.8 °F - 69.8 °F 100% 30.10 in 4.0 mi Calm Calm - N/A   Overcast
10:45 AM 71.6 °F - 69.8 °F 94% 30.09 in 5.0 mi SE 6.9 mph - N/A   Overcast
11:20 AM 71.6 °F - 69.8 °F 94% 30.10 in 5.0 mi SSE 4.6 mph - N/A   Overcast
11:57 AM 73.4 °F - 71.6 °F 94% 30.10 in 5.0 mi SSE 4.6 mph - N/A   Overcast
12:50 PM 77.0 °F - 71.6 °F 83% 30.09 in 5.0 mi SSW 9.2 mph - N/A   Overcast
2:47 PM 80.6 °F 84.6 °F 71.6 °F 74% 30.06 in 7.0 mi South 4.6 mph - N/A   Mostly Cloudy
3:50 PM 82.4 °F 87.2 °F 71.6 °F 70% 30.04 in 10.0 mi South 6.9 mph - N/A   Mostly Cloudy
4:55 PM 84.2 °F 90.9 °F 73.4 °F 70% 30.02 in 10.0 mi South 5.8 mph - N/A   Mostly Cloudy
6:50 PM 78.8 °F - 73.4 °F 83% 30.02 in 10.0 mi South 4.6 mph - N/A   Scattered Clouds
7:50 PM 78.8 °F - 73.4 °F 83% 30.02 in 10.0 mi South 5.8 mph - N/A   Mostly Cloudy
8:50 PM 77.0 °F - 71.6 °F 83% 30.04 in 10.0 mi South 3.5 mph - N/A Thunderstorm Overcast
9:10 PM 75.2 °F - 71.6 °F 89% 30.04 in 10.0 mi Calm Calm - N/A Rain , Thunderstorm Light Thunderstorms and Rain
9:30 PM 73.4 °F - 71.6 °F 94% 30.06 in 7.0 mi South 4.6 mph - N/A Rain Light Rain
9:50 PM 73.4 °F - 71.6 °F 94% 30.05 in 10.0 mi South 3.5 mph - 0.01 in Rain , Thunderstorm Light Thunderstorms and Rain
10:10 PM 73.4 °F - 71.6 °F 94% 30.05 in 10.0 mi South 9.2 mph - N/A Thunderstorm Thunderstorm
10:30 PM 71.6 °F - 71.6 °F 100% 30.05 in 5.0 mi South 9.2 mph - 0.09 in Rain , Thunderstorm Heavy Thunderstorms and Rain
10:50 PM 71.6 °F - 71.6 °F 100% 30.05 in 3.0 mi Calm Calm - 0.20 in Rain , Thunderstorm Heavy Thunderstorms and Rain
11:10 PM 69.8 °F - 69.8 °F 100% 30.08 in 1.2 mi SW 5.8 mph 23.0 mph 0.31 in Rain , Thunderstorm Heavy Thunderstorms and Rain
11:30 PM 68.0 °F - 68.0 °F 100% 30.05 in 5.0 mi SE 4.6 mph - 0.45 in Rain , Thunderstorm Light Thunderstorms and Rain
11:50 PM 68.0 °F - 68.0 °F 100% 30.06 in 7.0 mi SE 3.5 mph - 0.48 in Rain , Thunderstorm Rain